Regional Weather Roundup
Issued by NWS

Home | Current Version | Previous Version | Graphics & Text | Print | Product List | Glossary On
Versions: 1 2 3 4 5 6 7 8 9 10 11 12 13 14 15 16 17 18 19 20 21 22 23 24 25 26 27 28 29 30 31 32 33 34 35 36 37 38 39 40 41 42 43 44 45 46 47 48 49 50
300
ASUS43 KIND 292109
RWRIN

WEATHER ROUNDUP FOR INDIANA
NATIONAL WEATHER SERVICE INDIANAPOLIS IN
500 PM EDT SUN MAY 29 2016

NOTE: "FAIR" INDICATES FEW OR NO CLOUDS BELOW 12,000 FEET WITH NO
SIGNIFICANT WEATHER AND/OR OBSTRUCTIONS TO VISIBILITY.

* - STATION DOES NOT REPORT WEATHER SUCH AS PRECIPITATION OR FOG.

+ - STATION NOT QUALITY CONTROLLED BY THE NATIONAL WEATHER SERVICE.
    USE DATA WITH CAUTION...ESPECIALLY DEWPOINT AND RELATIVE
    HUMIDITY OBSERVATIONS.

INZ001>003-010>013-019-020-292200-
NORTHWEST INDIANA

CITY           SKY/WX    TMP DP  RH WIND       PRES   REMARKS
GARY /AIRPORT/ MOSUNNY   81  64  57 W18G35    30.01F
KNOX *+          N/A     84  37  18 W14       29.99F
LA PORTE +     MOSUNNY   82  57  42 W12G20    30.01S
MICHIGAN CITY+ SUNNY     77  59  53 W10G16    30.01S
MONTICELLO +   PTSUNNY   85  44  23 W15G25    30.00S
RENSSELAER +   MOSUNNY   82  52  34 W9        30.01F
VALPARAISO     SUNNY     83  56  39 W15       30.01F

$$

LMZ046-743>745-292200-
SOUTHERN LAKE MICHIGAN

STATION/POSITION TIME  TEMP    WIND        PRES    WAVE
                       AIR SEA DIR/SP/G            HT
                 (UTC) (F)     (DEG/KT/KT) (MB)    (FT)
BURNS HARBOR     2000   67     290/ 11/ 13 1016.6S
MICHIGAN CITY    2000   67     250/ 14/ 15   N/A
5NW MICH CITY    2100   63 58  300/  8/  8   N/A     1

$$

INZ004-005-014>016-021>024-292200-
NORTH CENTRAL INDIANA

CITY           SKY/WX    TMP DP  RH WIND       PRES   REMARKS
ELKHART        MOSUNNY   82  64  54 MISG      29.99F
GOSHEN         MOSUNNY   84  54  35 W17       29.98F
LOGANSPORT +   MOSUNNY   82  52  34 W14G23    30.01F
PERU/GRISSOM   MOSUNNY   86  55  35 W13G24    30.00F
ROCHESTER +    SUNNY     84  54  34 SW10G20   30.00F
SOUTH BEND     SUNNY     81  58  45 W16       29.99F
WARSAW +       MOSUNNY   86  54  32 W15G21    29.99F

$$

INZ006>009-017-018-025>027-292200-
NORTHEAST INDIANA

CITY           SKY/WX    TMP DP  RH WIND       PRES   REMARKS
ANGOLA *+        N/A     84  81  89 SW10      29.98F HX  98
AUBURN +       MOSUNNY   86  50  28 W14G20    29.98F
FORT WAYNE     MOSUNNY   88  53  30 W21G29    29.98F
HUNTINGTON +   MOSUNNY   85  53  33 W13G20    29.99F

$$

INZ028-029-035-036-043>045-051>053-292200-
WEST CENTRAL INDIANA

CITY           SKY/WX    TMP DP  RH WIND       PRES   REMARKS
CRAWFORDSVL +  SUNNY     84  53  34 W9        30.03F
GREENCASTLE +  MOSUNNY   82  64  54 W9        30.04S
LAFAYETTE      SUNNY     84  54  35 W13G23    30.00F
TERRE HAUTE    SUNNY     86  57  37 NW12      30.04F

$$

INZ030>032-037>040-046>048-054>057-064-065-292200-
CENTRAL INDIANA

CITY           SKY/WX    TMP DP  RH WIND       PRES   REMARKS
CP ATTERBURY + SUNNY     82  63  51 SW9       30.03F HAZE
COLUMBUS       MOSUNNY   86  59  39 SW10      30.02F
FRANKFORT +      N/A     87  26  11 W9G21     30.03F
GREENWOOD *+   MOSUNNY   84  61  45 W6        30.03F
INDIANAPOLIS   PTSUNNY   83  62  49 W12       30.01F
-EAGLE CREEK   MOSUNNY   85  61  44 W15       30.01F
KOKOMO *+      SUNNY     86  55  35 W16G22    30.00F
MARION +       MOSUNNY   86  55  34 W18G24    30.01F
SHELBYVILLE    MOSUNNY   87  60  40 SW9       30.00F
ZIONSVILLE +   MOSUNNY   83  60  44 W9G16     30.03F

$$

INZ033-034-041-042-049-050-058-059-292200-
EAST CENTRAL INDIANA

CITY           SKY/WX    TMP DP  RH WIND       PRES   REMARKS
MUNCIE         PTSUNNY   79  65  62 W7        30.02S

$$

INZ060-061-067>069-081>083-085>088-292200-
SOUTHWEST INDIANA

CITY           SKY/WX    TMP DP  RH WIND       PRES   REMARKS
EVANSVILLE     MOSUNNY   79  64  60 S6        30.04F
HUNTINGBURG *+ CLOUDY    84  64  51 SW9       30.03F
WASHINGTON +   CLOUDY    78  67  71 S3        30.03F

$$

INZ062-063-066-070>080-084-089>092-292200-
SOUTH CENTRAL AND SOUTHEAST INDIANA

CITY           SKY/WX    TMP DP  RH WIND       PRES   REMARKS
BLOOMINGTON    TSTM      73  60  63 SW6       30.05R
MADISON *+     MOSUNNY   86  61  42 SW7       30.05F
NORTH VERNON + MOSUNNY   86  70  58 W7        30.03F
SEYMOUR +      CLOUDY    88  63  42 SW8       30.01F

$$





USA.gov is the U.S. government's official web portal to all federal, state and local government web resources and services.